Torna al catalogo

STARLINK-5475

AttivoComunicazioniVLEO
NORAD 55661·PAYLOAD·🇺🇸 United States

Lanciato Feb 17, 2023 da Vandenberg Space Force Base

Loading…

Prossimi Passaggi (prossime 24 ore)

TLE

AggiornatoSource: CelesTrak SupGP

Epoca: Sep 15, 2026, 02:41 UTC

1 55661C 23021AK  26258.11229167  .00695420  00000+0  57255-1 0  2581
2 55661  70.0006  46.8888 0002991 270.6956 222.9872 14.98664852    12

Traccia STARLINK-5475 in tempo reale con AllMySat

Download on the App Store